Wind_Speed
91 85 79 73 69 66 62 60 62 61 60 54 45 40 29 31 29 28 27 25 23 21 20 18 18 18 16 19 18 17 20 19 22 17 23 21 23 21 21 20 18 17 17 16
94 88 81 75 73 70 65 64 68 64 65 58 50 41 34 36 33 32 29 26 25 25 23 21 20 20 20 18 19 22 20 22 23 24 21 21 21 21 20 21 21 19 20 14
93 88 81 78 79 73 73 75 66 67 63 61 54 43 41 38 37 36 33 30 29 25 23 21 20 20 18 19 20 21 22 23 24 24 17 20 19 20 21 22 22 19 19 19
85 86 81 75 79 80 80 73 75 67 66 66 59 44 41 40 42 38 37 33 28 24 22 21 20 20 19 22 23 24 25 25 26 24 25 22 21 21 21 22 20 24 16 25
93 85 76 80 81 84 81 67 78 75 64 66 55 51 47 44 42 39 38 31 28 25 23 21 22 23 23 24 25 26 24 25 23 23 23 23 23 21 21 22 22 24 25 30
101 101 90 87 82 81 81 76 71 69 64 62 55 51 48 47 46 40 38 30 28 25 24 21 22 21 21 20 19 20 22 23 23 23 21 23 20 17 20 22 23 27 31 30
100 91 91 90 80 80 78 72 69 69 62 59 56 51 51 48 43 41 36 32 29 22 22 21 21 20 19 19 19 20 20 21 22 20 20 22 17 19 21 24 26 31 35 35
89 80 77 91 79 74 74 73 65 65 59 55 56 52 53 44 46 45 38 32 26 23 20 17 18 18 17 16 17 18 19 19 19 20 20 20 19 20 23 26 29 36 35 38
77 84 82 78 78 71 65 66 63 63 61 54 55 57 55 55 48 44 40 35 28 21 16 14 13 16 16 16 15 16 17 17 18 17 20 21 21 22 25 28 31 33 34 38
67 64 78 71 66 66 59 61 59 56 56 46 56 56 55 51 47 46 39 33 27 22 17 14 12 11 13 16 16 16 16 16 16 17 20 20 20 22 24 28 32 34 37 40
67 63 60 68 67 64 59 55 59 55 53 51 57 58 56 53 49 44 38 33 29 23 19 16 12 11 12 11 12 13 14 14 14 17 20 23 24 27 30 33 35 38 41 44
74 69 62 57 63 53 51 51 55 52 50 52 56 56 52 50 49 43 36 34 29 27 24 19 17 14 14 14 15 15 16 17 20 21 26 28 31 33 35 37 40 42 44 44
57 54 60 58 54 44 47 45 48 52 50 52 55 55 54 51 47 40 37 35 31 28 25 22 20 20 18 19 20 21 23 24 27 27 31 34 36 38 40 42 43 44 45 44
54 53 51 50 50 42 45 42 42 48 47 49 52 52 52 49 47 41 37 33 31 31 29 27 25 24 24 24 25 26 28 29 31 32 36 37 41 41 43 44 45 44 43 44
49 47 47 49 47 41 39 40 37 40 45 46 49 49 49 47 44 40 37 35 34 33 32 30 28 28 29 29 30 32 32 34 35 37 38 40 43 45 43 43 42 43 45 46
44 45 44 45 42 36 39 40 35 34 39 42 46 46 45 44 41 39 36 35 35 34 32 32 32 32 33 35 35 35 35 37 40 41 42 44 43 42 42 42 44 45 45 46
41 41 40 39 39 35 36 35 35 35 38 40 38 41 43 41 39 38 37 36 36 36 34 34 35 35 37 38 40 37 39 40 41 41 41 44 41 45 45 45 45 46 47 48
37 36 36 42 36 32 34 37 35 36 32 34 34 38 40 41 40 39 38 37 37 38 38 38 38 39 40 43 40 39 39 41 39 40 41 43 44 45 45 46 47 48 48 47
31 31 38 38 38 38 36 42 34 38 36 33 33 32 35 38 39 39 39 38 40 40 41 39 39 40 42 40 38 37 37 38 39 41 42 43 44 45 47 48 48 47 46 48
33 38 39 36 33 35 40 41 32 34 32 33 35 35 34 36 36 36 37 37 39 40 40 41 42 42 39 35 34 36 37 39 41 42 43 44 46 47 47 46 46 48 51 54
30 31 32 32 34 32 33 35 39 39 33 30 32 33 34 34 35 35 38 39 41 42 40 40 40 38 33 33 35 37 40 41 41 42 43 44 44 44 46 49 51 54 56 58
28 28 29 29 28 28 30 26 34 32 31 25 26 27 28 29 31 33 34 35 37 40 37 36 38 32 33 35 38 40 41 41 41 42 42 43 45 48 50 53 56 56 55 53
21 24 26 30 28 27 28 28 26 24 19 20 23 25 26 26 27 28 30 33 35 34 35 37 34 33 35 38 40 40 41 41 42 42 44 47 49 52 55 54 50 50 51 54
19 17 20 27 27 26 25 23 23 22 23 22 22 23 24 25 27 31 32 35 36 38 37 35 33 35 37 38 39 40 41 42 44 46 48 51 53 51 47 47 50 53 56 58
24 22 23 21 18 18 18 20 19 20 21 23 24 26 28 29 32 34 36 38 39 38 35 34 36 38 38 39 40 42 44 46 48 51 53 50 45 45 48 51 54 56 58 59
29 29 25 26 29 23 23 23 23 26 27 28 29 29 31 32 35 36 38 40 41 39 37 35 34 37 40 42 45 47 50 52 53 51 46 45 47 50 53 55 57 58 60 60
31 32 35 36 33 31 33 33 35 34 32 33 36 37 37 36 34 33 32 31 32 34 34 38 41 44 46 48 51 52 52 50 45 44 46 49 52 54 56 58 59 60 60 59
Wind_Direction
231 227 225 222 222 219 216 216 216 216 218 215 223 225 210 208 213 205 208 202 205 203 201 194 195 201 212 203 203 213 225 230 241 247 246 246 253 256 256 249 243 231 222 230
225 224 219 213 210 212 213 212 212 212 213 215 220 210 201 207 209 203 205 194 199 198 199 201 201 207 210 213 217 224 229 238 245 254 253 256 258 252 241 239 234 226 234 252
222 217 213 206 204 205 206 208 205 208 212 212 210 205 203 205 205 198 199 194 200 202 205 206 207 216 217 226 230 236 240 244 251 255 255 251 239 236 233 236 231 232 243 256
208 213 209 201 198 199 203 204 205 212 214 209 205 196 200 202 201 197 199 196 200 205 212 217 223 230 235 241 244 246 248 250 250 249 250 248 243 237 239 238 237 243 249 265
185 187 191 189 196 196 202 201 203 205 206 204 196 196 194 196 199 197 200 195 200 207 216 225 236 242 244 245 245 248 247 246 245 245 241 241 241 241 243 246 251 259 262 265
180 171 173 184 187 194 199 201 201 200 201 201 199 195 192 193 197 194 196 194 202 210 220 230 236 237 241 241 239 238 238 241 237 238 242 242 242 250 253 252 257 263 265 271
173 165 176 185 188 196 195 195 199 195 198 198 198 197 191 187 196 195 189 194 198 207 218 226 227 231 235 233 234 236 237 236 236 239 238 245 251 252 257 261 263 266 270 275
168 172 177 179 187 194 188 189 193 196 194 196 195 191 192 180 197 190 185 188 195 206 213 221 227 229 235 235 236 235 233 230 233 236 240 251 256 257 261 264 267 270 274 279
163 174 176 184 176 180 177 188 187 192 194 197 194 190 188 189 189 186 184 189 196 202 206 212 218 223 231 231 233 236 237 238 242 248 253 258 262 264 264 267 270 274 277 280
162 160 164 171 176 176 183 185 186 188 194 194 193 192 190 188 190 186 185 188 195 199 200 207 214 218 225 230 231 235 240 244 251 257 263 265 268 270 274 276 281 287 289 288
164 164 166 173 169 174 183 182 185 188 193 194 191 191 190 190 189 186 187 192 199 204 208 210 215 217 224 226 229 232 240 250 256 264 270 273 276 280 282 289 291 291 291 292
162 161 161 163 167 173 179 179 184 190 192 192 193 192 191 191 188 193 192 198 202 209 214 215 224 230 237 242 245 255 260 267 270 274 278 282 286 291 292 291 292 292 293 293
151 154 161 166 166 171 175 177 185 190 192 194 195 193 193 195 192 196 203 204 209 216 222 229 233 240 248 251 258 263 270 274 276 279 282 285 287 289 292 293 294 294 293 293
154 159 160 161 164 168 177 181 186 190 194 197 195 197 199 200 202 203 208 212 218 223 229 235 241 248 254 260 264 267 273 276 279 280 281 286 287 290 292 292 292 292 292 292
154 156 159 162 169 168 181 183 188 189 194 197 199 201 204 208 210 212 215 220 226 230 235 241 246 253 258 262 266 270 273 276 278 280 283 284 285 289 289 288 288 289 290 293
153 159 162 164 164 174 179 181 185 189 197 199 200 204 209 213 216 217 220 225 230 236 241 246 251 256 261 264 268 272 274 277 281 283 285 286 285 287 286 287 288 291 293 294
157 159 163 167 172 180 180 176 179 186 196 198 201 206 211 217 222 225 227 230 236 241 246 251 256 259 263 267 269 274 277 280 281 283 284 285 284 287 288 290 292 294 295 297
161 163 165 165 170 174 177 177 180 190 196 198 202 208 212 217 222 225 230 234 240 245 249 252 257 260 264 268 274 278 279 280 281 281 281 283 286 288 291 293 294 295 296 296
169 174 166 163 175 177 177 173 177 195 203 206 204 209 214 220 223 229 233 237 242 247 250 252 256 262 267 273 275 277 278 280 280 280 282 285 288 290 291 293 295 295 296 297
172 165 168 168 172 181 184 190 180 189 198 206 210 214 220 222 224 229 235 241 244 247 252 257 262 267 270 274 274 275 277 277 279 282 286 288 290 292 293 293 293 294 297 298
166 171 171 169 179 183 189 201 210 209 217 222 218 219 220 223 227 233 239 243 249 253 255 258 263 268 272 273 274 276 276 278 282 284 287 289 289 289 290 292 294 297 299 300
171 177 184 190 196 198 198 194 199 204 207 212 216 221 225 229 232 237 242 246 250 255 259 262 265 269 273 274 274 273 275 280 283 284 285 285 287 290 292 294 296 297 298 301
166 178 181 190 194 196 207 212 216 223 223 221 222 226 231 235 237 241 245 249 254 259 263 267 271 275 274 271 271 275 279 282 282 283 286 289 290 291 293 295 297 301 304 306
194 193 193 198 205 209 211 214 215 214 214 217 224 229 234 238 241 245 251 259 263 266 268 272 275 272 274 275 277 280 281 282 284 286 288 289 291 293 296 299 302 304 306 308
208 201 202 202 202 204 209 216 222 223 224 231 236 241 247 251 255 257 260 262 264 267 272 274 274 275 275 277 279 281 283 285 287 289 291 292 293 296 299 301 304 306 307 308
221 220 219 218 229 230 233 232 232 234 236 246 256 258 260 262 263 265 265 266 269 272 272 273 275 275 278 281 283 285 286 288 289 290 291 293 296 298 301 304 305 306 307 305
225 229 233 231 236 235 242 245 240 238 247 256 259 259 258 260 258 260 264 266 267 270 270 269 273 277 280 282 284 285 286 287 288 289 291 294 298 301 302 303 304 304 303 302
Height
5534 5553 5570 5584 5602 5615 5628 5642 5650 5659 5668 5678 5687 5692 5699 5703 5707 5712 5717 5720 5724 5728 5731 5733 5736 5739 5741 5742 5745 5748 5750 5752 5753 5755 5754 5757 5758 5760 5760 5761 5763 5762 5763 5764
5506 5530 5549 5565 5582 5599 5616 5628 5634 5646 5658 5671 5679 5687 5692 5696 5703 5708 5714 5717 5722 5726 5728 5731 5733 5736 5737 5741 5743 5744 5748 5749 5750 5751 5754 5754 5755 5755 5756 5756 5758 5759 5760 5762
5478 5504 5528 5548 5565 5586 5601 5610 5622 5633 5652 5665 5673 5680 5685 5691 5698 5703 5710 5714 5719 5723 5726 5728 5731 5733 5735 5738 5740 5742 5743 5745 5746 5748 5750 5749 5749 5750 5751 5752 5754 5756 5757 5757
5450 5483 5508 5532 5550 5571 5582 5594 5611 5627 5639 5653 5662 5671 5679 5687 5693 5699 5706 5710 5716 5720 5723 5725 5727 5730 5732 5733 5735 5737 5739 5741 5741 5742 5742 5744 5745 5746 5747 5748 5751 5751 5755 5751
5427 5462 5491 5514 5536 5555 5570 5588 5601 5620 5638 5646 5655 5662 5669 5680 5690 5696 5703 5708 5714 5717 5720 5723 5725 5725 5727 5728 5730 5731 5734 5735 5736 5737 5738 5739 5740 5742 5743 5744 5746 5746 5747 5745
5418 5446 5480 5506 5526 5545 5562 5583 5597 5613 5625 5638 5650 5656 5665 5676 5683 5693 5699 5705 5709 5713 5715 5718 5719 5721 5722 5724 5725 5727 5728 5729 5731 5732 5734 5734 5737 5739 5739 5739 5740 5740 5738 5740
5426 5452 5475 5499 5523 5544 5562 5580 5592 5607 5619 5634 5646 5652 5660 5672 5681 5688 5695 5700 5704 5710 5711 5713 5715 5717 5718 5720 5721 5722 5724 5725 5726 5728 5729 5729 5733 5733 5733 5733 5734 5732 5730 5730
5430 5452 5472 5497 5520 5542 5562 5573 5592 5604 5619 5631 5638 5647 5656 5670 5675 5682 5688 5696 5702 5705 5707 5709 5711 5713 5715 5716 5717 5718 5719 5720 5722 5722 5724 5726 5727 5728 5728 5727 5727 5722 5724 5722
5438 5461 5480 5502 5524 5544 5568 5574 5587 5601 5614 5623 5635 5641 5652 5660 5671 5678 5684 5691 5697 5701 5703 5705 5707 5709 5711 5711 5713 5714 5715 5716 5718 5719 5719 5720 5721 5721 5721 5720 5719 5717 5716 5713
5449 5469 5492 5508 5528 5551 5561 5574 5587 5602 5612 5621 5629 5638 5650 5659 5667 5674 5681 5687 5692 5696 5700 5702 5704 5705 5706 5708 5709 5711 5711 5712 5713 5714 5714 5714 5714 5714 5714 5713 5714 5709 5706 5702
5464 5483 5501 5517 5535 5551 5562 5574 5586 5598 5607 5618 5626 5634 5645 5654 5663 5671 5678 5683 5688 5693 5696 5698 5700 5702 5703 5704 5705 5706 5707 5708 5709 5708 5708 5708 5708 5707 5707 5705 5702 5699 5695 5691
5479 5495 5510 5525 5540 5552 5562 5576 5588 5598 5607 5617 5624 5634 5644 5652 5658 5666 5673 5677 5682 5687 5690 5694 5696 5698 5700 5701 5701 5702 5703 5704 5704 5704 5702 5700 5699 5698 5696 5694 5691 5688 5684 5679
5491 5506 5519 5533 5545 5557 5567 5577 5588 5597 5605 5613 5621 5630 5641 5650 5657 5664 5668 5673 5678 5682 5686 5689 5691 5693 5695 5695 5696 5696 5696 5697 5696 5697 5694 5691 5690 5687 5685 5682 5679 5675 5671 5667
5502 5516 5527 5538 5550 5560 5568 5577 5586 5595 5604 5611 5621 5629 5639 5647 5653 5659 5664 5670 5673 5677 5679 5682 5685 5687 5688 5689 5689 5689 5689 5689 5688 5688 5684 5683 5678 5678 5675 5671 5667 5664 5660 5656
5513 5524 5534 5544 5553 5562 5570 5580 5587 5594 5602 5610 5620 5628 5636 5643 5650 5655 5660 5664 5668 5671 5673 5676 5679 5680 5681 5681 5681 5681 5681 5680 5679 5677 5676 5673 5669 5666 5663 5660 5656 5653 5649 5644
5521 5530 5539 5547 5556 5566 5570 5578 5587 5595 5602 5610 5616 5626 5632 5639 5645 5650 5655 5659 5662 5665 5667 5669 5671 5672 5673 5672 5672 5673 5672 5671 5668 5666 5664 5661 5657 5655 5652 5649 5645 5641 5638 5633
5526 5534 5543 5550 5558 5565 5572 5579 5586 5593 5599 5607 5615 5621 5628 5634 5640 5645 5649 5653 5656 5658 5660 5662 5663 5664 5663 5663 5662 5663 5662 5660 5658 5655 5652 5648 5646 5642 5639 5636 5633 5630 5626 5621
5530 5537 5544 5551 5558 5566 5572 5579 5585 5593 5597 5605 5611 5616 5623 5629 5633 5638 5642 5645 5648 5650 5652 5653 5654 5654 5653 5652 5653 5652 5651 5649 5647 5644 5640 5637 5633 5631 5628 5624 5621 5617 5613 5609
5532 5539 5546 5553 5558 5565 5571 5578 5585 5590 5597 5601 5607 5613 5619 5623 5628 5632 5634 5637 5639 5641 5642 5644 5645 5644 5643 5644 5642 5641 5639 5637 5634 5632 5629 5626 5623 5620 5616 5612 5608 5604 5599 5595
5535 5541 5546 5553 5560 5566 5571 5576 5582 5587 5591 5597 5602 5608 5613 5618 5621 5624 5627 5629 5630 5632 5634 5634 5634 5634 5634 5633 5632 5630 5628 5625 5622 5620 5618 5615 5611 5607 5603 5599 5595 5591 5586 5581
5538 5543 5550 5556 5560 5566 5571 5575 5579 5583 5588 5593 5598 5603 5607 5611 5614 5616 5618 5619 5621 5622 5624 5624 5624 5625 5624 5623 5621 5619 5616 5613 5611 5609 5606 5603 5599 5596 5592 5588 5583 5578 5572 5567
5543 5547 5551 5555 5559 5565 5570 5574 5578 5582 5588 5593 5597 5600 5602 5604 5606 5608 5610 5610 5611 5611 5613 5614 5613 5617 5614 5612 5609 5606 5604 5603 5600 5598 5595 5592 5588 5583 5579 5574 5569 5564 5558 5552
5544 5548 5551 5556 5560 5564 5568 5572 5578 5582 5585 5588 5590 5593 5595 5597 5599 5600 5601 5601 5601 5603 5603 5602 5605 5604 5602 5599 5597 5595 5594 5592 5589 5586 5583 5578 5574 5570 5565 5560 5554 5549 5543 5537
5546 5549 5552 5555 5559 5563 5568 5572 5574 5577 5579 5582 5584 5586 5589 5590 5592 5592 5592 5593 5593 5592 5593 5594 5594 5591 5590 5588 5586 5585 5582 5580 5577 5573 5569 5564 5560 5555 5549 5545 5539 5534 5528 5521
5543 5547 5549 5553 5558 5561 5564 5567 5570 5572 5575 5577 5579 5581 5583 5583 5583 5584 5583 5582 5581 5582 5583 5583 5581 5579 5578 5576 5574 5572 5569 5567 5563 5559 5554 5549 5545 5540 5535 5530 5524 5518 5512 5505
5540 5542 5546 5550 5553 5556 5559 5561 5564 5566 5568 5570 5571 5572 5572 5573 5572 5572 5571 5571 5570 5572 5571 5570 5569 5568 5566 5564 5561 5558 5555 5552 5547 5543 5539 5535 5531 5527 5521 5515 5509 5502 5496 5489
5534 5537 5540 5544 5547 5551 5553 5554 5556 5558 5560 5561 5561 5561 5562 5561 5561 5561 5562 5562 5562 5561 5560 5559 5558 5556 5553 5551 5547 5544 5540 5537 5533 5530 5526 5522 5517 5511 5505 5499 5492 5486 5480 5474